Weather History for Capri, Italy

Change the Weather History Date:

Sunday, April 7, 2013

  Actual Average Record
Temperature  
Mean Temperature 63 °F -  
Max Temperature 70 °F - - ()
Min Temperature 56 °F - - ()
Degree Days  
Heating Degree Days 2    
Growing Degree Days 13 (Base 50)    
Moisture  
Dew Point 55 °F    
Average Humidity 77    
Maximum Humidity 100    
Minimum Humidity 48    
Precipitation  
Precipitation 0.00 in - - ()
Sea Level Pressure  
Sea Level Pressure 29.67 in    
Wind  
Wind Speed 6 mph ()    
Max Wind Speed 14 mph    
Max Gust Speed -    
Visibility 8.3 miles    
Events      
T = Trace of Precipitation, MM = Missing Value Source: Averaged Metar Reports

Daily Weather History Graph

Daily Weather History Graph

Search for Another Location

Airport:

Trip Planner

Search our weather history database for the weather conditions in past years. The results will help you decide how hot, cold, wet, or windy it might be!

Date:

Astronomy

Apr. 07, 2013 Rise Set
Actual Time 6:37 AM CEST 7:34 PM CEST
Civil Twilight 6:09 AM CEST 8:01 PM CEST
Nautical Twilight 5:36 AM CEST 8:35 PM CEST
Astronomical Twilight 5:02 AM CEST 9:09 PM CEST
Moon 4:45 AM CEST (4/7) 4:47 PM CEST (4/7)
Length of Visible Light 13h 52m
Length of Day
12h 56m
Waning Crescent, 10% of the Moon is Illuminated
Apr 7
Waning Crescent
Apr 10
New
Apr 18
First Quarter
Apr 25
Full
May 2
Last Quarter

Hourly Weather History & Observations

Time (CEST) Temp. Dew Point Humidity Pressure Visibility Wind Dir Wind Speed Gust Speed Precip Events Conditions
12:55 AM 59.0 °F 53.6 °F 82% 29.74 in - North - - N/A   Scattered Clouds
2:00 AM 60 °F 51 °F 63% 29.73 in 6 mi NNE 10.4 mph - -   Partly Cloudy
5:00 AM 59 °F 50 °F 63% 29.66 in 6 mi NE 13.8 mph - -   Mostly Cloudy
6:55 AM 57.2 °F 50.0 °F 77% 29.65 in - North - - N/A   Scattered Clouds
7:55 AM 57.2 °F 48.2 °F 72% 29.65 in - North - - N/A   Scattered Clouds
8:00 AM 57 °F 49 °F 66% 29.65 in 6 mi NE 8.1 mph - -   Partly Cloudy
8:55 AM 57.2 °F 50.0 °F 77% 29.62 in - North - - N/A   Scattered Clouds
9:55 AM 62.6 °F 51.8 °F 68% 29.62 in - North - - N/A   Clear
10:55 AM 62.6 °F 51.8 °F 68% 29.65 in - North - - N/A   Clear
11:00 AM 62 °F 52 °F 60% 29.65 in 6 mi North 2.3 mph - -  
11:55 AM 62.6 °F 51.8 °F 68% 29.65 in - North - - N/A   Partly Cloudy
12:55 PM 62.6 °F 53.6 °F 72% 29.65 in - North - - N/A   Scattered Clouds
1:55 PM 64.4 °F 50.0 °F 59% 29.65 in - North - - N/A   Scattered Clouds
2:00 PM 65 °F 50 °F 48% 29.65 in 6 mi North 2.3 mph - -   Overcast
2:55 PM 66.2 °F 53.6 °F 64% 29.65 in - North - - N/A   Scattered Clouds
3:55 PM 69.8 °F 59.0 °F 68% 29.65 in - North - - N/A   Scattered Clouds
4:55 PM 66.2 °F 59.0 °F 78% 29.65 in - North - - N/A   Scattered Clouds
5:00 PM 66 °F 60 °F 75% 29.65 in 12 mi North 2.3 mph - -   Overcast
5:55 PM 66.2 °F 60.8 °F 83% 29.65 in - North - - N/A   Scattered Clouds
6:55 PM 62.6 °F 60.8 °F 94% 29.65 in - North - - N/A   Partly Cloudy
7:55 PM 60.8 °F 59.0 °F 94% 29.68 in - North - - N/A   Partly Cloudy
8:00 PM 60 °F 59 °F 95% 29.69 in 12 mi ENE 2.3 mph - -   Scattered Clouds
8:55 PM 59.0 °F 55.4 °F 88% 29.68 in - North - - N/A   Scattered Clouds
9:55 PM 59.0 °F 59.0 °F 100% 29.68 in - North - - N/A   Scattered Clouds
10:55 PM 59.0 °F 59.0 °F 100% 29.71 in - North - - N/A   Scattered Clouds
11:00 PM 59 °F 58 °F 97% 29.72 in 12 mi WSW 2.3 mph - -   Overcast
11:55 PM 57.2 °F 57.2 °F 100% 29.71 in - North - - N/A   Scattered Clouds